Evergreen, AL

5:17 PM CDT on September 26, 2017 (GMT -0500)
Middleton

Weather History for KGZH - April, 2014

Change the Weather History Date:

Tuesday, April 15, 2014

  Actual Average (KPRN) Record (KPRN)
Temperature  
Mean Temperature 54 °F -  
Max Temperature 66 °F 77 °F 90 °F (1936)
Min Temperature 41 °F 53 °F 33 °F (1943)
Degree Days  
Heating Degree Days 11    
Growing Degree Days 4 (Base 50)    
Moisture  
Dew Point 45 °F    
Average Humidity 77    
Maximum Humidity 93    
Minimum Humidity 39    
Precipitation  
Precipitation 0.38 in - - ()
Sea Level Pressure  
Sea Level Pressure 29.97 in    
Wind  
Wind Speed 9 mph (NNW)    
Max Wind Speed 17 mph    
Max Gust Speed 29 mph    
Visibility 8 miles    
Events Rain    
Averages and records for this station are not official NWS values.
T = Trace of Precipitation, MM = Missing Value Source: NWS Daily Summary

Daily Weather History Graph

Daily Weather History Graph

Search for Another Location

Airport or City:

Trip Planner

Search our weather history database for the weather conditions in past years. The results will help you decide how hot, cold, wet, or windy it might be!

Date:

Astronomy

Apr. 15, 2014 Rise Set
Actual Time 6:19 AM CDT 7:16 PM CDT
Civil Twilight 5:55 AM CDT 7:41 PM CDT
Nautical Twilight 5:25 AM CDT 8:11 PM CDT
Astronomical Twilight 4:55 AM CDT 8:41 PM CDT
Moon 7:54 PM CDT (4/15) 6:28 AM CDT (4/15)
Length of Visible Light 13h 46m
Length of Day
12h 56m
Full, 100% of the Moon is Illuminated
Apr 15
Full
Apr 22
Last Quarter
Apr 29
New
May 6
First Quarter
May 14
Full

Hourly Weather History & Observations

Time (CDT) Temp. Windchill Dew Point Humidity Pressure Visibility Wind Dir Wind Speed Gust Speed Precip Events Conditions
12:53 AM 66.0 °F - 63.0 °F 90% 29.81 in 7.0 mi NNW 5.8 mph - 0.10 in Rain Light Rain
1:53 AM 66.0 °F - 63.0 °F 90% 29.77 in 4.0 mi SE 9.2 mph - 0.08 in Rain Heavy Rain
2:53 AM 64.9 °F - 63.0 °F 93% 29.78 in 7.0 mi West 4.6 mph - 0.02 in Rain Light Rain
3:17 AM 64.9 °F - 63.0 °F 93% 29.81 in 7.0 mi West 3.5 mph - 0.02 in Rain Rain
3:37 AM 64.9 °F - 63.0 °F 93% 29.81 in 6.0 mi West 4.6 mph - 0.03 in Rain Light Rain
3:53 AM 64.9 °F - 62.1 °F 90% 29.79 in 3.0 mi North - - 0.07 in Rain Rain
3:57 AM 64.9 °F - 62.1 °F 90% 29.79 in 4.0 mi Variable 4.6 mph - 0.01 in Rain Rain
4:31 AM 57.0 °F - 53.1 °F 87% 29.83 in 8.0 mi NW 10.4 mph 23.0 mph 0.04 in Rain Light Rain
4:53 AM 54.0 °F - 51.1 °F 90% 29.81 in 6.0 mi NNW 11.5 mph 21.9 mph 0.07 in Rain Rain
5:02 AM 54.0 °F - 50.0 °F 86% 29.82 in 7.0 mi NNW 12.7 mph - 0.01 in Rain Rain
5:53 AM 52.0 °F - 48.0 °F 86% 29.86 in 10.0 mi NW 9.2 mph 19.6 mph 0.03 in   Overcast
6:21 AM 51.1 °F - 48.0 °F 89% 29.89 in 3.0 mi NNW 9.2 mph - 0.01 in Rain Light Rain
6:42 AM 50.0 °F - 46.0 °F 86% 29.90 in 6.0 mi NNW 11.5 mph 19.6 mph 0.01 in Rain Light Rain
6:53 AM 50.0 °F - 46.0 °F 86% 29.91 in 5.0 mi NNW 13.8 mph 24.2 mph 0.01 in Rain Light Rain
7:03 AM 48.9 °F - 45.0 °F 86% 29.92 in 8.0 mi NNW 11.5 mph 24.2 mph 0.00 in Rain Light Rain
7:19 AM 48.9 °F - 44.1 °F 83% 29.92 in 10.0 mi NNW 15.0 mph 23.0 mph 0.00 in Rain Light Rain
7:53 AM 48.9 °F - 44.1 °F 83% 29.94 in 10.0 mi NNW 12.7 mph 21.9 mph 0.00 in   Overcast
8:19 AM 48.9 °F - 43.0 °F 80% 29.95 in 10.0 mi NNW 10.4 mph 24.2 mph N/A   Overcast
8:34 AM 48.0 °F - 44.1 °F 86% 29.97 in 10.0 mi NW 8.1 mph 18.4 mph N/A   Overcast
8:53 AM 48.0 °F - 43.0 °F 83% 29.98 in 10.0 mi NNW 10.4 mph 21.9 mph 0.00 in Rain Light Rain
9:53 AM 48.0 °F - 42.1 °F 80% 30.01 in 10.0 mi NNW 9.2 mph 20.7 mph 0.00 in   Overcast
10:26 AM 46.9 °F - 41.0 °F 80% 30.03 in 10.0 mi NNW 12.7 mph 23.0 mph N/A   Overcast
10:53 AM 48.0 °F - 41.0 °F 77% 30.04 in 10.0 mi North 16.1 mph 25.3 mph N/A   Overcast
11:53 AM 46.9 °F - 39.0 °F 74% 30.06 in 10.0 mi NNW 13.8 mph 21.9 mph N/A   Overcast
12:53 PM 48.9 °F - 37.9 °F 66% 30.08 in 10.0 mi NNW 13.8 mph 23.0 mph N/A   Overcast
1:35 PM 51.1 °F - 37.9 °F 61% 30.07 in 10.0 mi North 12.7 mph 26.5 mph N/A   Overcast
1:53 PM 51.1 °F - 37.9 °F 61% 30.07 in 10.0 mi NNW 12.7 mph 24.2 mph N/A   Overcast
2:11 PM 53.1 °F - 37.0 °F 55% 30.07 in 10.0 mi North 15.0 mph 25.3 mph N/A   Mostly Cloudy
2:53 PM 54.0 °F - 37.0 °F 53% 30.06 in 10.0 mi NNW 16.1 mph 26.5 mph N/A   Mostly Cloudy
3:53 PM 55.9 °F - 34.0 °F 44% 30.04 in 10.0 mi North 16.1 mph 28.8 mph N/A   Clear
4:53 PM 55.9 °F - 30.9 °F 39% 30.04 in 10.0 mi North 17.3 mph 27.6 mph N/A   Clear
5:53 PM 55.9 °F - 32.0 °F 40% 30.04 in 10.0 mi North 16.1 mph 23.0 mph N/A   Clear
6:53 PM 53.1 °F - 35.1 °F 50% 30.08 in 10.0 mi North 5.8 mph - N/A   Clear
7:53 PM 46.9 °F - 39.9 °F 77% 30.12 in 10.0 mi Calm Calm - N/A   Clear
8:53 PM 45.0 °F - 41.0 °F 86% 30.15 in 10.0 mi Calm Calm - N/A   Clear
9:53 PM 43.0 °F - 39.0 °F 86% 30.17 in 10.0 mi Calm Calm - N/A   Clear
10:53 PM 42.1 °F 40.2 °F 36.0 °F 79% 30.18 in 10.0 mi NNW 3.5 mph - N/A   Clear
11:53 PM 41.0 °F 39.0 °F 36.0 °F 82% 30.19 in 10.0 mi NW 3.5 mph - N/A   Clear